#timestamp,LO_Frequency,Hit,StdDev 
1533294015.1,286047001.8,N
1533294065.9,286047003.8,E
1533294075.8,286047002.5,N
1533294095.7,286047001.0,P
1533294115.5,286046998.2,N
1533294135.3,286046998.6,N
1533294155.2,286046998.2,N
1533294175.9,286047000.8,N
1533294195.7,286046998.6,N
1533294215.6,286046998.6,N
1533294235.4,286046998.9,N
1533294255.2,286046998.6,N
1533294275.1,286046998.3,N
1533294276.0,286046998.3,N
1533294295.8,286046998.7,N
1533294315.7,286046998.7,N
1533294335.5,286046998.5,N
1533294355.3,286047000.8,N
1533294375.2,286047002.7,N
1533294395.0,286047003.9,N
1533294395.9,286047003.9,N
1533294415.8,286047001.5,N
1533294435.6,286047004.3,N
1533294455.4,286047003.1,N
1533294475.1,286047003.7,N
1533294476.0,286047003.7,N
1533294495.8,286047003.7,N
1533294515.7,286047001.4,N
1533294535.5,286047004.4,N
1533294555.3,286047002.1,N
1533294575.2,286047001.6,N
1533294595.0,286046999.8,N
1533294595.9,286046999.8,N
1533294615.8,286047002.3,N
1533294635.6,286047001.3,N
1533294655.4,286047003.9,N
1533294675.3,286047004.1,N
1533294695.1,286047004.8,N
1533294715.8,286047006.2,N
1533294735.7,286047003.0,N
1533294755.5,286047005.0,N
1533294775.4,286047007.2,Y
1533294795.2,286047003.8,P
1533294815.0,286047003.2,P
1533294815.9,286047003.2,P
1533294835.8,286047007.3,Y
1533294855.6,286047000.2,P
1533294875.5,286047000.1,N
1533294895.3,286047002.0,N
1533294915.1,286047003.9,Y
1533294935.9,286047001.0,P
1533294955.7,286046998.1,P
1533294975.5,286046996.7,N
1533294995.4,286046996.9,N
1533295015.2,286047001.5,N
1533295035.1,286047004.2,N
1533295036.0,286047004.2,N
1533295055.8,286047001.7,N
1533295075.6,286046999.0,N
1533295095.5,286046995.0,N
1533295115.3,286046995.2,N
1533295135.1,286046993.7,N
1533295155.9,286046991.7,N
1533295175.7,286046992.4,N
1533295195.5,286046993.1,N
1533295215.4,286046991.1,N
1533295235.2,286046988.8,N
1533295255.1,286046991.3,N
1533295256.0,286046991.3,N
1533295275.8,286046990.0,N
1533295295.6,286046986.9,N
1533295315.5,286046987.0,N
1533295335.3,286046987.6,N
1533295355.2,286046988.2,N
1533295375.9,286046988.1,N
1533295395.7,286046988.4,N
1533295415.6,286046988.3,N
1533295435.4,286046985.8,N
1533295455.2,286046986.0,N
1533295475.1,286046986.5,N
1533295476.0,286046986.5,N
1533295495.1,286046986.8,N
1533295515.9,286046986.6,N
1533295535.7,286046984.3,N
1533295555.5,286046984.8,N
1533295575.4,286046982.1,Y
1533295595.2,286046994.6,P
1533295615.1,286046991.9,P
1533295616.0,286046991.9,P
1533295635.8,286046994.8,Y
1533295655.6,286046999.7,P
1533295675.5,286046998.2,N
1533295695.3,286046998.1,N
1533295715.1,286046998.8,N
1533295735.9,286046998.6,N
1533295755.2,286046998.6,N
1533295775.0,286046998.8,N
1533295775.9,286046998.8,N
1533295795.8,286046998.8,N
1533295815.6,286046998.4,N
1533295835.4,286046999.0,N
1533295855.3,286046998.4,N
1533295875.1,286046996.6,N
1533295895.8,286046999.3,N
1533295915.7,286046999.5,N
1533295935.5,286046996.5,N
1533295955.4,286046999.5,N
1533295975.2,286046996.5,N
1533295995.0,286046996.6,N
1533295995.9,286046996.6,N
1533296015.8,286046997.3,N
1533296035.6,286046997.4,N
1533296055.5,286046996.6,N
1533296075.3,286046997.2,N
1533296095.1,286046997.3,N
1533296115.9,286046997.6,N
1533296135.7,286046997.7,N
1533296155.5,286046997.9,N
1533296175.4,286046998.0,N
1533296195.2,286046995.3,Y
1533296215.1,286046999.5,P
1533296216.0,286046999.5,N
1533296235.8,286046999.6,N
1533296255.6,286046999.3,N
1533296275.5,286046999.4,N
1533296295.3,286046998.9,N
1533296315.2,286046999.5,N
1533296335.9,286046999.1,N
1533296355.7,286046996.9,Y
1533296375.6,286046999.0,P
1533296395.4,286046998.9,P
1533296415.2,286046998.8,P
1533296435.7,286046999.6,Y
1533296455.6,286047000.6,P
1533296475.4,286047000.9,N
1533296495.2,286047000.5,N
1533296515.1,286047000.7,N
1533296516.0,286047000.7,N
1533296535.8,286047001.0,N
1533296555.7,286047000.5,N
1533296575.5,286047000.2,N
1533296595.1,286047000.9,N
1533296596.0,286047000.9,N
1533296615.8,286046998.6,N
1533296635.6,286046998.2,N
1533296655.5,286046998.2,N
1533296675.3,286046999.1,N
1533296695.1,286047011.9,Y
1533296715.9,286046999.1,P
1533296735.7,286046998.6,P
1533296755.6,286046998.4,N
1533296775.4,286046999.0,N
1533296795.2,286046998.6,N
1533296815.1,286046998.5,N
1533296816.0,286046998.5,N
1533296835.8,286046998.1,Y
1533296855.6,286047000.2,P
1533296875.5,286047000.2,N
1533296895.3,286047002.8,P
1533296915.2,286046999.9,N
1533296935.9,286047000.4,N
1533296955.7,286047000.1,N
1533296975.6,286047000.1,N
1533296995.4,286046999.9,N
1533297015.2,286047000.0,N
1533297035.1,286046999.8,N
1533297036.0,286046999.8,N
1533297055.8,286047000.0,N
1533297075.7,286047000.5,N
1533297095.5,286047000.4,N
1533297115.3,286047000.9,N
1533297135.2,286047001.2,N
1533297155.0,286047000.8,N
1533297155.9,286047000.8,N
1533297175.7,286046998.9,N
1533297195.6,286046999.3,N
1533297215.4,286046999.1,N
1533297235.3,286046999.2,N
1533297255.1,286046998.1,N
1533297256.0,286046998.1,N
1533297275.8,286046998.9,N
1533297295.7,286046999.0,N
1533297315.5,286046998.4,N
1533297335.3,286046998.9,N
1533297355.2,286046998.8,N
1533297375.0,286046999.0,N
1533297375.9,286046999.0,N
1533297395.8,286046998.4,N
1533297415.6,286046998.5,N
1533297435.4,286046998.3,N
1533297455.3,286046998.9,N
1533297475.1,286046999.1,N
1533297495.8,286046998.6,N
1533297515.7,286046998.6,N
1533297535.5,286046998.6,N
1533297555.4,286046999.0,N
1533297575.2,286046999.1,N
1533297595.0,286046999.6,N
1533297595.9,286046999.6,N
